• In Kazakhstan
  • List of Countries
  • For 7 days
  • Water Temperature
  • Satellite Maps
  • Weather Map
  • News
  • Weather Widgets
  • user-avatar
    Login

    Hourly Weather Salzburg

    Today, 24 November, Friday

    Time Temperature Precipitation Wind Pressure Humidity
    00:00 -2°C° 0 mm 2 mps 625 mmHg 73%
    01:00 -1°C° 0 mm 2 mps 625 mmHg 71%
    02:00 -1°C° 0 mm 2 mps 625 mmHg 73%
    03:00 -2°C° 0 mm 2 mps 625 mmHg 74%
    04:00 0°C° 0 mm 1 mps 625 mmHg 76%
    05:00 -2°C° 0 mm 2 mps 625 mmHg 77%
    06:00 -3°C° 0 mm 2 mps 625 mmHg 78%
    07:00 -2°C° 0 mm 1 mps 624 mmHg 83%
    08:00 -1°C° 0 mm 1 mps 625 mmHg 80%
    09:00 +1°C° 0 mm 1 mps 625 mmHg 78%
    10:00 +2°C° 0 mm 2 mps 626 mmHg 76%
    11:00 +3°C° 0 mm 2 mps 626 mmHg 76%
    12:00 +5°C° 0 mm 1 mps 626 mmHg 77%
    13:00 +6°C° 0 mm 1 mps 626 mmHg 77%
    14:00 +5°C° 0 mm 1 mps 625 mmHg 79%
    15:00 +4°C° 0 mm 1 mps 625 mmHg 82%
    16:00 +3°C° 0 mm 1 mps 624 mmHg 84%
    17:00 +1°C° 0 mm 2 mps 624 mmHg 83%
    18:00 +1°C° 0 mm 2 mps 624 mmHg 83%
    19:00 -1°C° 0 mm 2 mps 624 mmHg 82%
    20:00 -1°C° 0 mm 2 mps 624 mmHg 82%
    21:00 -1°C° 0 mm 2 mps 624 mmHg 82%
    22:00 -2°C° 0 mm 2 mps 624 mmHg 82%
    23:00 -2°C° 0 mm 2 mps 623 mmHg 83%

    Tomorrow, 25 November, Saturday

    Time Temperature Precipitation Wind Pressure Humidity
    00:00 -3°C° 0 mm 2 mps 623 mmHg 83%
    01:00 -3°C° 0 mm 2 mps 623 mmHg 84%
    02:00 -3°C° 0 mm 2 mps 622 mmHg 85%
    03:00 -4°C° 0 mm 2 mps 622 mmHg 85%
    04:00 -4°C° 0 mm 2 mps 621 mmHg 86%
    05:00 -4°C° 0 mm 2 mps 620 mmHg 87%
    06:00 -3°C° 0 mm 2 mps 620 mmHg 88%
    07:00 -4°C° 0 mm 3 mps 619 mmHg 88%
    08:00 -2°C° 0 mm 3 mps 619 mmHg 87%
    09:00 -1°C° 0 mm 3 mps 619 mmHg 85%
    10:00 0°C° 0 mm 3 mps 619 mmHg 84%
    11:00 +1°C° 0 mm 3 mps 619 mmHg 84%
    12:00 +2°C° 0 mm 3 mps 619 mmHg 83%
    13:00 +2°C° 0 mm 3 mps 620 mmHg 83%
    14:00 +1°C° 0.8 mm 3 mps 620 mmHg 87%
    15:00 +1°C° 0.8 mm 2 mps 620 mmHg 90%
    16:00 -1°C° 0.8 mm 2 mps 620 mmHg 94%
    17:00 -1°C° 1.2 mm 2 mps 620 mmHg 94%
    18:00 -2°C° 1.2 mm 2 mps 620 mmHg 93%
    19:00 -3°C° 1.2 mm 2 mps 620 mmHg 93%
    20:00 -3°C° 0.9 mm 2 mps 621 mmHg 93%
    21:00 -4°C° 0.9 mm 2 mps 621 mmHg 93%
    22:00 -4°C° 0.9 mm 2 mps 621 mmHg 94%
    23:00 -4°C° 0.4 mm 2 mps 621 mmHg 94%

    Day after tomorrow, 26 November, Sunday

    Time Temperature Precipitation Wind Pressure Humidity
    00:00 -5°C° 0.4 mm 2 mps 621 mmHg 94%
    01:00 -5°C° 0.4 mm 2 mps 621 mmHg 94%
    02:00 -5°C° 0.5 mm 2 mps 622 mmHg 94%
    03:00 -5°C° 0.5 mm 2 mps 622 mmHg 95%
    04:00 -6°C° 0.5 mm 2 mps 622 mmHg 95%
    05:00 -6°C° 0.9 mm 2 mps 622 mmHg 95%
    06:00 -6°C° 0.9 mm 2 mps 623 mmHg 95%
    07:00 -6°C° 0.9 mm 2 mps 623 mmHg 96%
    08:00 -6°C° 1.2 mm 2 mps 624 mmHg 95%
    09:00 -6°C° 1.2 mm 2 mps 624 mmHg 95%
    10:00 -7°C° 1.2 mm 3 mps 625 mmHg 94%
    11:00 -7°C° 0.7 mm 3 mps 625 mmHg 93%
    12:00 -7°C° 0.7 mm 3 mps 625 mmHg 92%
    13:00 -8°C° 0.7 mm 3 mps 625 mmHg 91%
    14:00 -8°C° 0.3 mm 3 mps 625 mmHg 91%
    15:00 -9°C° 0.3 mm 3 mps 625 mmHg 92%
    16:00 -8°C° 0.3 mm 2 mps 625 mmHg 92%
    17:00 -9°C° 0.1 mm 2 mps 625 mmHg 93%
    18:00 -9°C° 0.1 mm 2 mps 626 mmHg 94%
    19:00 -10°C° 0.1 mm 2 mps 626 mmHg 95%
    20:00 -12°C° 0.1 mm 2 mps 626 mmHg 94%
    21:00 -12°C° 0.1 mm 2 mps 627 mmHg 94%
    22:00 -12°C° 0.1 mm 2 mps 627 mmHg 93%
    23:00 -12°C° 0.1 mm 2 mps 627 mmHg 93%

    27 November, Monday

    Time Temperature Precipitation Wind Pressure Humidity
    00:00 -12°C° 0.1 mm 2 mps 627 mmHg 92%
    01:00 -12°C° 0.1 mm 2 mps 627 mmHg 92%
    02:00 -13°C° 0.1 mm 2 mps 627 mmHg 92%
    03:00 -13°C° 0.1 mm 2 mps 627 mmHg 92%
    04:00 -13°C° 0.1 mm 2 mps 627 mmHg 93%
    05:00 -13°C° 0.1 mm 2 mps 627 mmHg 93%
    06:00 -13°C° 0.1 mm 2 mps 627 mmHg 93%
    07:00 -13°C° 0.1 mm 2 mps 628 mmHg 92%
    08:00 -12°C° 0.1 mm 2 mps 628 mmHg 91%
    09:00 -10°C° 0.1 mm 2 mps 628 mmHg 89%
    10:00 -9°C° 0.1 mm 2 mps 629 mmHg 87%
    11:00 -8°C° 0 mm 2 mps 628 mmHg 85%
    12:00 -7°C° 0 mm 2 mps 628 mmHg 83%
    13:00 -7°C° 0 mm 2 mps 628 mmHg 81%
    14:00 -7°C° 0 mm 1 mps 628 mmHg 84%
    15:00 -8°C° 0 mm 1 mps 627 mmHg 88%
    16:00 -9°C° 0 mm 1 mps 626 mmHg 91%
    17:00 -10°C° 0 mm 1 mps 626 mmHg 91%
    18:00 -11°C° 0 mm 1 mps 626 mmHg 91%
    19:00 -14°C° 0 mm 2 mps 626 mmHg 90%
    20:00 -14°C° 0 mm 2 mps 625 mmHg 88%
    21:00 -14°C° 0 mm 2 mps 625 mmHg 85%
    22:00 -14°C° 0 mm 2 mps 625 mmHg 82%
    23:00 -14°C° 0 mm 2 mps 625 mmHg 80%

    28 November, Tuesday

    Time Temperature Precipitation Wind Pressure Humidity
    00:00 -14°C° 0 mm 2 mps 624 mmHg 77%
    01:00 -14°C° 0 mm 2 mps 624 mmHg 75%
    02:00 -14°C° 0 mm 2 mps 623 mmHg 74%
    03:00 -11°C° 0 mm 1 mps 623 mmHg 73%
    04:00 -11°C° 0 mm 1 mps 623 mmHg 72%
    05:00 -11°C° 0 mm 1 mps 622 mmHg 71%
    06:00 -11°C° 0 mm 1 mps 622 mmHg 71%
    07:00 -11°C° 0 mm 1 mps 622 mmHg 70%
    08:00 -9°C° 0 mm 1 mps 622 mmHg 71%
    09:00 -7°C° 0 mm 1 mps 622 mmHg 71%
    10:00 -4°C° 0 mm 1 mps 622 mmHg 72%
    11:00 -3°C° 0 mm 1 mps 622 mmHg 74%
    12:00 -2°C° 0 mm 1 mps 621 mmHg 75%
    13:00 -1°C° 0 mm 1 mps 621 mmHg 77%
    14:00 -2°C° 0 mm 1 mps 620 mmHg 80%
    15:00 -3°C° 0 mm 1 mps 619 mmHg 83%
    16:00 -6°C° 0 mm 1 mps 618 mmHg 85%
    17:00 -6°C° 0 mm 1 mps 618 mmHg 85%
    18:00 -7°C° 0 mm 1 mps 618 mmHg 85%
    19:00 -9°C° 0 mm 2 mps 617 mmHg 85%
    20:00 -9°C° 0 mm 2 mps 617 mmHg 84%
    21:00 -9°C° 0 mm 2 mps 617 mmHg 84%
    22:00 -9°C° 0 mm 2 mps 616 mmHg 83%
    23:00 -9°C° 0 mm 2 mps 616 mmHg 83%

    29 November, Wednesday

    Time Temperature Precipitation Wind Pressure Humidity
    00:00 -10°C° 0 mm 2 mps 616 mmHg 83%
    01:00 -10°C° 0 mm 2 mps 615 mmHg 83%
    02:00 -10°C° 0 mm 2 mps 615 mmHg 83%
    03:00 -12°C° 0 mm 2 mps 615 mmHg 83%
    04:00 -12°C° 0 mm 2 mps 614 mmHg 83%
    05:00 -12°C° 0 mm 2 mps 614 mmHg 82%
    06:00 -13°C° 0 mm 2 mps 614 mmHg 82%
    07:00 -13°C° 0 mm 2 mps 614 mmHg 82%
    08:00 -10°C° 0 mm 2 mps 614 mmHg 82%
    09:00 -7°C° 0 mm 1 mps 615 mmHg 81%
    10:00 -6°C° 0 mm 1 mps 616 mmHg 80%
    11:00 -4°C° 0 mm 1 mps 616 mmHg 80%
    12:00 -3°C° 0 mm 1 mps 616 mmHg 80%
    13:00 -2°C° 0 mm 1 mps 615 mmHg 80%
    14:00 -2°C° 0.4 mm 1 mps 615 mmHg 84%
    15:00 -3°C° 0.4 mm 1 mps 615 mmHg 88%
    16:00 -4°C° 0.4 mm 1 mps 614 mmHg 92%
    17:00 -4°C° 1 mm 1 mps 614 mmHg 93%
    18:00 -4°C° 1 mm 1 mps 614 mmHg 94%
    19:00 -6°C° 1 mm 1 mps 614 mmHg 94%
    20:00 -6°C° 1.5 mm 1 mps 614 mmHg 95%
    21:00 -6°C° 1.5 mm 1 mps 613 mmHg 96%
    22:00 -6°C° 1.5 mm 1 mps 613 mmHg 97%
    23:00 -6°C° 1.6 mm 1 mps 613 mmHg 97%
    Show more